| time (UTC) | temp F | wind direction | speed MPH | gust MPH | rain 1hr in | rain 24hr in | rain mn in | humidity % | barometer mb |
| 20260902023937 | 67 | 70 | 2.0 | 5.0 | 0.00 | 0.00 | 0.00 | 1 | 1015.5 |
| 20260902023656 | 67 | 70 | 1.0 | 5.0 | 0.00 | 0.00 | 0.00 | 1 | 1015.5 |
| 20260902022926 | 67 | 70 | 0.0 | 4.0 | 0.00 | 0.00 | 0.00 | 1 | 1015.4 |
| 20260902022419 | 67 | 70 | 1.0 | 4.0 | 0.00 | 0.00 | 0.00 | 1 | 1015.4 |
| 20260902021913 | 67 | 70 | 1.0 | 4.0 | 0.00 | 0.00 | 0.00 | 1 | 1015.4 |
| 20260902021632 | 67 | 70 | 2.0 | 7.0 | 0.00 | 0.00 | 0.00 | 1 | 1015.4 |
| 20260902020901 | 67 | 70 | 3.0 | 7.0 | 0.00 | 0.00 | 0.00 | 1 | 1015.2 |
| 20260902020354 | 67 | 73 | 3.0 | 8.0 | 0.00 | 0.00 | 0.00 | 1 | 1015.3 |
| 20260902015849 | 68 | 73 | 3.0 | 8.0 | 0.00 | 0.00 | 0.00 | 1 | 1015.2 |
| 20260902015343 | 68 | 75 | 2.0 | 5.0 | 0.00 | 0.00 | 0.00 | 1 | 1015.2 |
| 20260902014837 | 68 | 75 | 1.0 | 5.0 | 0.00 | 0.00 | 0.00 | 1 | 1015.3 |
| 20260902014331 | 68 | 74 | 0.0 | 4.0 | 0.00 | 0.00 | 0.00 | 1 | 1015.3 |
| 20260902013824 | 68 | 74 | 1.0 | 4.0 | 0.00 | 0.00 | 0.00 | 1 | 1015.2 |
| 20260902013542 | 68 | 74 | 1.0 | 4.0 | 0.00 | 0.00 | 0.00 | 1 | 1015.1 |
| 20260902012813 | 68 | 74 | 0.0 | 3.0 | 0.00 | 0.00 | 0.00 | 1 | 1015.1 |
| 20260902012752 | 68 | 74 | 1.0 | 5.0 | 0.00 | 0.00 | 0.00 | 1 | 1015.1 |
| 20260902011801 | 68 | 72 | 1.0 | 4.0 | 0.00 | 0.00 | 0.00 | 1 | 1015.0 |
| 20260902011254 | 69 | 71 | 0.0 | 2.0 | 0.00 | 0.00 | 0.00 | 1 | 1014.9 |
| 20260902010749 | 69 | 71 | 1.0 | 2.0 | 0.00 | 0.00 | 0.00 | 1 | 1014.8 |
| 20260902010243 | 69 | 71 | 2.0 | 6.0 | 0.00 | 0.00 | 0.00 | 1 | 1014.6 |
| 20260902010003 | 69 | 71 | 3.0 | 6.0 | 0.00 | 0.00 | 0.00 | 1 | 1014.6 |
| 20260902005231 | 69 | 71 | 3.0 | 7.0 | 0.00 | 0.00 | 0.00 | 1 | 1014.5 |
| 20260902004724 | 69 | 73 | 4.0 | 7.0 | 0.00 | 0.00 | 0.00 | 1 | 1014.3 |
| 20260902004218 | 69 | 65 | 4.0 | 7.0 | 0.00 | 0.00 | 0.00 | 1 | 1014.1 |
| 20260902003713 | 69 | 66 | 4.0 | 8.0 | 0.00 | 0.00 | 0.00 | 1 | 1014.0 |
| 20260902003207 | 70 | 79 | 4.0 | 8.0 | 0.00 | 0.00 | 0.00 | 1 | 1013.9 |
| 20260902002923 | 70 | 65 | 3.0 | 7.0 | 0.00 | 0.00 | 0.00 | 1 | 1013.8 |
| 20260902002154 | 70 | 70 | 4.0 | 8.0 | 0.00 | 0.00 | 0.00 | 1 | 1013.7 |
| 20260902001649 | 70 | 75 | 4.0 | 11.0 | 0.00 | 0.00 | 0.00 | 1 | 1013.6 |
| 20260902001143 | 70 | 73 | 4.0 | 11.0 | 0.00 | 0.00 | 0.00 | 1 | 1013.6 |
| 20260902000900 | 70 | 84 | 4.0 | 8.0 | 0.00 | 0.00 | 0.00 | 1 | 1013.6 |
| 20260902000139 | 70 | 78 | 4.0 | 7.0 | 0.00 | 0.00 | 0.00 | 1 | 1013.5 |
| 20260901235639 | 70 | 90 | 4.0 | 8.0 | 0.00 | 0.00 | 0.00 | 1 | 1013.5 |
| 20260901235139 | 71 | 65 | 4.0 | 9.0 | 0.00 | 0.00 | 0.00 | 1 | 1013.4 |
| 20260901234639 | 71 | 79 | 4.0 | 9.0 | 0.00 | 0.00 | 0.00 | 1 | 1013.4 |
| 20260901234139 | 71 | 94 | 3.0 | 8.0 | 0.00 | 0.00 | 0.00 | 1 | 1013.3 |
| 20260901233637 | 71 | 64 | 4.0 | 9.0 | 0.00 | 0.00 | 0.00 | 1 | 1013.2 |
| 20260901233137 | 71 | 53 | 3.0 | 9.0 | 0.00 | 0.00 | 0.00 | 1 | 1013.2 |
| 20260901232636 | 71 | 58 | 3.0 | 6.0 | 0.00 | 0.00 | 0.00 | 1 | 1013.3 |
| 20260901232135 | 71 | 48 | 3.0 | 7.0 | 0.00 | 0.00 | 0.00 | 1 | 1013.3 |
| 20260901231903 | 71 | 59 | 3.0 | 7.0 | 0.00 | 0.00 | 0.00 | 1 | 1013.3 |
| 20260901231133 | 71 | 53 | 3.0 | 8.0 | 0.00 | 0.00 | 0.00 | 1 | 1013.3 |
| 20260901230633 | 71 | 71 | 4.0 | 11.0 | 0.00 | 0.00 | 0.00 | 1 | 1013.4 |
| 20260901230132 | 71 | 58 | 4.0 | 11.0 | 0.00 | 0.00 | 0.00 | 1 | 1013.5 |
| 20260901225632 | 72 | 71 | 5.0 | 11.0 | 0.00 | 0.00 | 0.00 | 1 | 1013.4 |
| 20260901225349 | 72 | 70 | 7.0 | 11.0 | 0.00 | 0.00 | 0.00 | 1 | 1013.3 |
| 20260901224629 | 72 | 43 | 7.0 | 13.0 | 0.00 | 0.00 | 0.00 | 1 | 1013.1 |
| 20260901224129 | 72 | 46 | 7.0 | 13.0 | 0.00 | 0.00 | 0.00 | 1 | 1012.9 |
| 20260901223629 | 72 | 63 | 6.0 | 11.0 | 0.00 | 0.00 | 0.00 | 1 | 1012.9 |
| 20260901223350 | 72 | 65 | 5.0 | 9.0 | 0.00 | 0.00 | 0.00 | 1 | 1012.8 |
| 20260901222629 | 72 | 56 | 5.0 | 8.0 | 0.00 | 0.00 | 0.00 | 1 | 1012.8 |
| 20260901222129 | 72 | 57 | 4.0 | 7.0 | 0.00 | 0.00 | 0.00 | 1 | 1012.8 |
| 20260901221628 | 73 | 59 | 4.0 | 8.0 | 0.00 | 0.00 | 0.00 | 1 | 1012.9 |
| 20260901221126 | 73 | 58 | 4.0 | 8.0 | 0.00 | 0.00 | 0.00 | 1 | 1012.9 |
| 20260901220627 | 73 | 62 | 3.0 | 8.0 | 0.00 | 0.00 | 0.00 | 1 | 1012.9 |
| 20260901220127 | 73 | 56 | 3.0 | 8.0 | 0.00 | 0.00 | 0.00 | 1 | 1012.7 |
| 20260901215853 | 73 | 51 | 2.0 | 8.0 | 0.00 | 0.00 | 0.00 | 1 | 1012.7 |
| 20260901215123 | 73 | 51 | 3.0 | 9.0 | 0.00 | 0.00 | 0.00 | 1 | 1012.7 |
| 20260901214845 | 73 | 51 | 4.0 | 11.0 | 0.00 | 0.00 | 0.00 | 1 | 1012.6 |
| 20260901214123 | 74 | 76 | 4.0 | 11.0 | 0.00 | 0.00 | 0.00 | 1 | 1012.4 |
| 20260901213622 | 74 | 67 | 5.0 | 9.0 | 0.00 | 0.00 | 0.00 | 1 | 1012.5 |
| 20260901213122 | 74 | 65 | 6.0 | 10.0 | 0.00 | 0.00 | 0.00 | 1 | 1012.3 |
| 20260901212624 | 74 | 57 | 6.0 | 11.0 | 0.00 | 0.00 | 0.00 | 1 | 1012.3 |
| 20260901212123 | 75 | 53 | 4.0 | 11.0 | 0.00 | 0.00 | 0.00 | 1 | 1012.4 |
| 20260901211622 | 75 | 67 | 4.0 | 6.0 | 0.00 | 0.00 | 0.00 | 1 | 1012.2 |
| 20260901211123 | 75 | 66 | 5.0 | 10.0 | 0.00 | 0.00 | 0.00 | 1 | 1012.2 |
| 20260901210840 | 75 | 63 | 6.0 | 10.0 | 0.00 | 0.00 | 0.00 | 1 | 1012.3 |
| 20260901210119 | 76 | 78 | 7.0 | 12.0 | 0.00 | 0.00 | 0.00 | 1 | 1012.3 |
| 20260901205842 | 76 | 71 | 7.0 | 12.0 | 0.00 | 0.00 | 0.00 | 1 | 1012.1 |
| 20260901205119 | 77 | 44 | 7.0 | 12.0 | 0.00 | 0.00 | 0.00 | 1 | 1012.0 |
| 20260901204618 | 77 | 55 | 7.0 | 11.0 | 0.00 | 0.00 | 0.00 | 1 | 1012.0 |
| 20260901204118 | 78 | 45 | 6.0 | 10.0 | 0.00 | 0.00 | 0.00 | 1 | 1011.7 |
| 20260901203619 | 78 | 60 | 6.0 | 15.0 | 0.00 | 0.00 | 0.00 | 1 | 1011.8 |
| 20260901203119 | 79 | 59 | 6.0 | 15.0 | 0.00 | 0.00 | 0.00 | 1 | 1011.8 |
| 20260901202619 | 79 | 59 | 4.0 | 9.0 | 0.00 | 0.00 | 0.00 | 1 | 1011.8 |
| 20260901202336 | 80 | 47 | 1.0 | 8.0 | 0.00 | 0.00 | 0.00 | 1 | 1011.8 |
| 20260901201615 | 80 | 248 | 0.0 | 1.0 | 0.00 | 0.00 | 0.00 | 1 | 1011.7 |
| 20260901201114 | 80 | 248 | 0.0 | 1.0 | 0.00 | 0.00 | 0.00 | 1 | 1011.6 |
| 20260901200615 | 81 | 248 | 0.0 | 0.0 | 0.00 | 0.00 | 0.00 | 1 | 1011.6 |
| 20260901200115 | 81 | 248 | 0.0 | 0.0 | 0.00 | 0.00 | 0.00 | 1 | 1011.6 |
| 20260901195615 | 81 | 248 | 0.0 | 0.0 | 0.00 | 0.00 | 0.00 | 1 | 1011.6 |
| 20260901195115 | 81 | 248 | 0.0 | 0.0 | 0.00 | 0.00 | 0.00 | 1 | 1011.6 |
| 20260901194615 | 81 | 248 | 0.0 | 0.0 | 0.00 | 0.00 | 0.00 | 1 | 1011.6 |
| 20260901194115 | 81 | 248 | 0.0 | 0.0 | 0.00 | 0.00 | 0.00 | 1 | 1011.6 |
| 20260901193610 | 82 | 248 | 0.0 | 0.0 | 0.00 | 0.00 | 0.00 | 1 | 1011.6 |
| 20260901193110 | 82 | 248 | 0.0 | 0.0 | 0.00 | 0.00 | 0.00 | 1 | 1011.6 |
| 20260901192611 | 82 | 248 | 0.0 | 4.0 | 0.00 | 0.00 | 0.00 | 1 | 1011.6 |
| 20260901192111 | 82 | 248 | 0.0 | 4.0 | 0.00 | 0.00 | 0.00 | 1 | 1011.5 |
| 20260901191610 | 82 | 248 | 0.0 | 5.0 | 0.00 | 0.00 | 0.00 | 1 | 1011.4 |
| 20260901191110 | 82 | 248 | 0.0 | 5.0 | 0.00 | 0.00 | 0.00 | 1 | 1011.4 |
| 20260901190833 | 82 | 248 | 0.0 | 4.0 | 0.00 | 0.00 | 0.00 | 1 | 1011.5 |
| 20260901190108 | 82 | 248 | 1.0 | 4.0 | 0.00 | 0.00 | 0.00 | 1 | 1011.5 |
| 20260901190051 | 82 | 248 | 1.0 | 4.0 | 0.00 | 0.00 | 0.00 | 1 | 1011.6 |
| 20260901185107 | 82 | 248 | 0.0 | 2.0 | 0.00 | 0.00 | 0.00 | 1 | 1011.6 |
| 20260901184606 | 82 | 248 | 0.0 | 5.0 | 0.00 | 0.00 | 0.00 | 1 | 1011.6 |
| 20260901184105 | 82 | 248 | 1.0 | 5.0 | 0.00 | 0.00 | 0.00 | 1 | 1011.7 |
| 20260901183603 | 82 | 249 | 2.0 | 5.0 | 0.00 | 0.00 | 0.00 | 1 | 1011.7 |
| 20260901183101 | 82 | 250 | 2.0 | 5.0 | 0.00 | 0.00 | 0.00 | 1 | 1011.8 |
| 20260901182601 | 81 | 250 | 2.0 | 6.0 | 0.00 | 0.00 | 0.00 | 1 | 1011.8 |
| 20260901182100 | 81 | 250 | 2.0 | 6.0 | 0.00 | 0.00 | 0.00 | 1 | 1011.8 |
| 20260901181559 | 80 | 251 | 1.0 | 5.0 | 0.00 | 0.00 | 0.00 | 1 | 1011.8 |
| 20260901181059 | 79 | 250 | 2.0 | 7.0 | 0.00 | 0.00 | 0.00 | 1 | 1011.8 |
| 20260901180557 | 79 | 251 | 4.0 | 8.0 | 0.00 | 0.00 | 0.00 | 1 | 1011.8 |
| 20260901180057 | 78 | 248 | 4.0 | 8.0 | 0.00 | 0.00 | 0.00 | 1 | 1011.8 |
| 20260901175819 | 77 | 259 | 3.0 | 7.0 | 0.00 | 0.00 | 0.00 | 1 | 1011.9 |
| 20260901175315 | 77 | 260 | 3.0 | 7.0 | 0.00 | 0.00 | 0.00 | 1 | 1011.8 |
| 20260901174555 | 76 | 262 | 3.0 | 7.0 | 0.00 | 0.00 | 0.00 | 1 | 1011.9 |
| 20260901174053 | 76 | 263 | 4.0 | 7.0 | 0.00 | 0.00 | 0.00 | 1 | 1011.9 |
| 20260901173551 | 76 | 263 | 4.0 | 7.0 | 0.00 | 0.00 | 0.00 | 1 | 1011.9 |
| 20260901173051 | 76 | 262 | 4.0 | 7.0 | 0.00 | 0.00 | 0.00 | 1 | 1011.9 |
| 20260901172549 | 76 | 265 | 4.0 | 9.0 | 0.00 | 0.00 | 0.00 | 1 | 1011.8 |
| 20260901172042 | 76 | 265 | 4.0 | 9.0 | 0.00 | 0.00 | 0.00 | 1 | 1011.7 |
| 20260901171536 | 75 | 261 | 4.0 | 8.0 | 0.00 | 0.00 | 0.00 | 1 | 1011.8 |
| 20260901171030 | 75 | 257 | 4.0 | 6.0 | 0.00 | 0.00 | 0.00 | 1 | 1012.0 |
| 20260901170531 | 75 | 257 | 3.0 | 6.0 | 0.00 | 0.00 | 0.00 | 1 | 1012.0 |
| 20260901170031 | 75 | 257 | 3.0 | 5.0 | 0.00 | 0.00 | 0.00 | 1 | 1011.9 |
| 20260901165530 | 74 | 255 | 3.0 | 7.0 | 0.00 | 0.00 | 0.00 | 1 | 1011.9 |
| 20260901165028 | 74 | 256 | 3.0 | 7.0 | 0.00 | 0.00 | 0.00 | 1 | 1012.0 |
| 20260901165005 | 74 | 257 | 3.0 | 6.0 | 0.00 | 0.00 | 0.00 | 1 | 1012.2 |
| 20260901164619 | 74 | 257 | 3.0 | 7.0 | 0.00 | 0.00 | 0.00 | 1 | 1012.1 |
| 20260901163526 | 73 | 259 | 3.0 | 6.0 | 0.00 | 0.00 | 0.00 | 1 | 1012.3 |
| 20260901163027 | 73 | 259 | 2.0 | 5.0 | 0.00 | 0.00 | 0.00 | 1 | 1012.4 |
| 20260901162526 | 73 | 259 | 2.0 | 5.0 | 0.00 | 0.00 | 0.00 | 1 | 1012.4 |
| 20260901162026 | 73 | 257 | 2.0 | 5.0 | 0.00 | 0.00 | 0.00 | 1 | 1012.4 |
| 20260901161524 | 72 | 258 | 1.0 | 6.0 | 0.00 | 0.00 | 0.00 | 1 | 1012.4 |
| 20260901161022 | 72 | 258 | 1.0 | 6.0 | 0.00 | 0.00 | 0.00 | 1 | 1012.5 |
| 20260901160520 | 72 | 258 | 1.0 | 6.0 | 0.00 | 0.00 | 0.00 | 1 | 1012.6 |
| 20260901160021 | 72 | 258 | 2.0 | 7.0 | 0.00 | 0.00 | 0.00 | 1 | 1012.8 |
| 20260901155521 | 71 | 254 | 2.0 | 7.0 | 0.00 | 0.00 | 0.00 | 1 | 1012.8 |
| 20260901155019 | 71 | 257 | 1.0 | 5.0 | 0.00 | 0.00 | 0.00 | 1 | 1013.0 |
| 20260901154518 | 71 | 257 | 1.0 | 5.0 | 0.00 | 0.00 | 0.00 | 1 | 1013.1 |
| 20260901154018 | 71 | 250 | 0.0 | 3.0 | 0.00 | 0.00 | 0.00 | 1 | 1013.2 |
| 20260901153512 | 71 | 250 | 0.0 | 4.0 | 0.00 | 0.00 | 0.00 | 1 | 1013.2 |
| 20260901153006 | 71 | 250 | 1.0 | 4.0 | 0.00 | 0.00 | 0.00 | 1 | 1013.3 |
| 20260901152501 | 71 | 259 | 1.0 | 6.0 | 0.00 | 0.00 | 0.00 | 1 | 1013.5 |
| 20260901151958 | 71 | 265 | 1.0 | 6.0 | 0.00 | 0.00 | 0.00 | 1 | 1013.5 |
| 20260901151458 | 71 | 265 | 0.0 | 2.0 | 0.00 | 0.00 | 0.00 | 1 | 1013.5 |
| 20260901150959 | 71 | 267 | 0.0 | 2.0 | 0.00 | 0.00 | 0.00 | 1 | 1013.5 |
| 20260901150459 | 70 | 269 | 0.0 | 2.0 | 0.00 | 0.00 | 0.00 | 1 | 1013.5 |
| 20260901145959 | 70 | 269 | 0.0 | 2.0 | 0.00 | 0.00 | 0.00 | 1 | 1013.7 |
| 20260901145459 | 70 | 269 | 0.0 | 2.0 | 0.00 | 0.00 | 0.00 | 1 | 1013.5 |
| 20260901144957 | 70 | 271 | 1.0 | 4.0 | 0.00 | 0.00 | 0.00 | 1 | 1013.4 |
| 20260901144454 | 70 | 273 | 1.0 | 4.0 | 0.00 | 0.00 | 0.00 | 1 | 1013.3 |
| 20260901143952 | 70 | 275 | 1.0 | 4.0 | 0.00 | 0.00 | 0.00 | 1 | 1013.2 |
| 20260901143708 | 70 | 279 | 1.0 | 5.0 | 0.00 | 0.00 | 0.00 | 1 | 1013.2 |
| 20260901143207 | 70 | 232 | 0.0 | 5.0 | 0.00 | 0.00 | 0.00 | 1 | 1013.4 |
| 20260901142715 | 71 | 224 | 0.0 | 0.0 | 0.00 | 0.00 | 0.00 | 1 | 1013.3 |
| 20260901141950 | 70 | 224 | 0.0 | 0.0 | 0.00 | 0.00 | 0.00 | 1 | 1013.3 |
| 20260901141450 | 70 | 223 | 0.0 | 0.0 | 0.00 | 0.00 | 0.00 | 1 | 1013.3 |
| 20260901140950 | 69 | 257 | 0.0 | 0.0 | 0.00 | 0.00 | 0.00 | 1 | 1013.3 |
| 20260901140450 | 69 | 257 | 0.0 | 0.0 | 0.00 | 0.00 | 0.00 | 1 | 1013.4 |
| 20260901140205 | 69 | 256 | 0.0 | 0.0 | 0.00 | 0.00 | 0.00 | 1 | 1013.3 |
| 20260901135704 | 69 | 256 | 0.0 | 0.0 | 0.00 | 0.00 | 0.00 | 1 | 1013.3 |
| 20260901134946 | 69 | 256 | 0.0 | 1.0 | 0.00 | 0.00 | 0.00 | 1 | 1013.5 |
| 20260901134440 | 69 | 256 | 0.0 | 1.0 | 0.00 | 0.00 | 0.00 | 1 | 1013.7 |
| 20260901133934 | 69 | 256 | 0.0 | 0.0 | 0.00 | 0.00 | 0.00 | 1 | 1013.4 |
| 20260901133645 | 69 | 256 | 0.0 | 0.0 | 0.00 | 0.00 | 0.00 | 1 | 1013.3 |
| 20260901132922 | 69 | 256 | 0.0 | 0.0 | 0.00 | 0.00 | 0.00 | 1 | 1013.4 |
| 20260901132416 | 69 | 256 | 0.0 | 0.0 | 0.00 | 0.00 | 0.00 | 1 | 1013.5 |
| 20260901131910 | 69 | 256 | 0.0 | 0.0 | 0.00 | 0.00 | 0.00 | 1 | 1013.6 |
| 20260901131636 | 69 | 256 | 0.0 | 1.0 | 0.00 | 0.00 | 0.00 | 1 | 1013.7 |
| 20260901130858 | 69 | 256 | 0.0 | 1.0 | 0.00 | 0.00 | 0.00 | 1 | 1013.8 |
| 20260901130352 | 69 | 256 | 0.0 | 0.0 | 0.00 | 0.00 | 0.00 | 1 | 1013.8 |
| 20260901125846 | 69 | 256 | 0.0 | 0.0 | 0.00 | 0.00 | 0.00 | 1 | 1013.8 |
| 20260901125340 | 69 | 256 | 0.0 | 0.0 | 0.00 | 0.00 | 0.00 | 1 | 1013.8 |
| 20260901124834 | 69 | 256 | 0.0 | 0.0 | 0.00 | 0.00 | 0.00 | 1 | 1013.8 |
| 20260901124328 | 69 | 256 | 0.0 | 0.0 | 0.00 | 0.00 | 0.00 | 1 | 1013.5 |
| 20260901123832 | 69 | 256 | 0.0 | 0.0 | 0.00 | 0.00 | 0.00 | 1 | 1013.5 |
| 20260901123317 | 69 | 256 | 0.0 | 0.0 | 0.00 | 0.00 | 0.00 | 1 | 1013.6 |
| 20260901122810 | 69 | 256 | 0.0 | 0.0 | 0.00 | 0.00 | 0.00 | 1 | 1013.8 |
| 20260901122306 | 69 | 256 | 0.0 | 0.0 | 0.00 | 0.00 | 0.00 | 1 | 1013.9 |
| 20260901122015 | 69 | 256 | 0.0 | 0.0 | 0.00 | 0.00 | 0.00 | 1 | 1013.9 |
| 20260901121252 | 69 | 256 | 0.0 | 0.0 | 0.00 | 0.00 | 0.00 | 1 | 1013.9 |
| 20260901120746 | 69 | 256 | 0.0 | 1.0 | 0.00 | 0.00 | 0.00 | 1 | 1013.9 |
| 20260901120240 | 69 | 256 | 0.0 | 1.0 | 0.00 | 0.00 | 0.00 | 1 | 1013.9 |
| 20260901115734 | 69 | 256 | 0.0 | 0.0 | 0.00 | 0.00 | 0.00 | 1 | 1013.6 |
| 20260901115228 | 69 | 256 | 0.0 | 1.0 | 0.00 | 0.00 | 0.00 | 1 | 1013.7 |
| 20260901114722 | 69 | 256 | 0.0 | 1.0 | 0.00 | 0.00 | 0.00 | 1 | 1013.6 |
| 20260901114215 | 69 | 256 | 0.0 | 0.0 | 0.00 | 0.00 | 0.00 | 1 | 1013.5 |
| 20260901113928 | 69 | 256 | 0.0 | 0.0 | 0.00 | 0.00 | 0.00 | 1 | 1013.5 |
| 20260901113204 | 69 | 256 | 0.0 | 0.0 | 0.00 | 0.00 | 0.00 | 1 | 1013.6 |
| 20260901112659 | 69 | 256 | 0.0 | 0.0 | 0.00 | 0.00 | 0.00 | 1 | 1013.3 |
| 20260901112152 | 69 | 256 | 0.0 | 0.0 | 0.00 | 0.00 | 0.00 | 1 | 1013.4 |
| 20260901111646 | 69 | 256 | 0.0 | 0.0 | 0.00 | 0.00 | 0.00 | 1 | 1013.6 |
| 20260901111140 | 69 | 256 | 0.0 | 0.0 | 0.00 | 0.00 | 0.00 | 1 | 1013.4 |
| 20260901110634 | 69 | 256 | 0.0 | 0.0 | 0.00 | 0.00 | 0.00 | 1 | 1013.6 |
| 20260901110134 | 68 | 256 | 0.0 | 2.0 | 0.00 | 0.00 | 0.00 | 1 | 1013.5 |
| 20260901105632 | 68 | 256 | 0.0 | 2.0 | 0.00 | 0.00 | 0.00 | 1 | 1013.5 |
| 20260901105130 | 68 | 256 | 0.0 | 0.0 | 0.00 | 0.00 | 0.00 | 1 | 1013.3 |
| 20260901104628 | 68 | 256 | 0.0 | 0.0 | 0.00 | 0.00 | 0.00 | 1 | 1013.4 |
| 20260901104347 | 68 | 256 | 0.0 | 0.0 | 0.00 | 0.00 | 0.00 | 1 | 1013.4 |
| 20260901103626 | 68 | 256 | 0.0 | 0.0 | 0.00 | 0.00 | 0.00 | 1 | 1013.5 |
| 20260901103126 | 68 | 256 | 0.0 | 0.0 | 0.00 | 0.00 | 0.00 | 1 | 1013.5 |
| 20260901102844 | 68 | 256 | 0.0 | 0.0 | 0.00 | 0.00 | 0.00 | 1 | 1013.5 |
| 20260901102122 | 68 | 256 | 0.0 | 0.0 | 0.00 | 0.00 | 0.00 | 1 | 1013.5 |
| 20260901101620 | 68 | 256 | 0.0 | 0.0 | 0.00 | 0.00 | 0.00 | 1 | 1013.4 |
| 20260901101118 | 68 | 256 | 0.0 | 0.0 | 0.00 | 0.00 | 0.00 | 1 | 1013.5 |
| 20260901100616 | 68 | 256 | 0.0 | 0.0 | 0.00 | 0.00 | 0.00 | 1 | 1013.6 |
| 20260901100114 | 68 | 256 | 0.0 | 0.0 | 0.00 | 0.00 | 0.00 | 1 | 1013.6 |
| 20260901095612 | 68 | 256 | 0.0 | 0.0 | 0.00 | 0.00 | 0.00 | 1 | 1013.5 |
| 20260901095112 | 68 | 256 | 0.0 | 0.0 | 0.00 | 0.00 | 0.00 | 1 | 1013.4 |
| 20260901094612 | 68 | 256 | 0.0 | 0.0 | 0.00 | 0.00 | 0.00 | 1 | 1013.5 |
| 20260901094110 | 68 | 256 | 0.0 | 0.0 | 0.00 | 0.00 | 0.00 | 1 | 1013.5 |
| 20260901093611 | 68 | 256 | 0.0 | 0.0 | 0.00 | 0.00 | 0.00 | 1 | 1013.4 |
| 20260901093107 | 68 | 256 | 0.0 | 0.0 | 0.00 | 0.00 | 0.00 | 1 | 1013.4 |
| 20260901092833 | 68 | 256 | 0.0 | 0.0 | 0.00 | 0.00 | 0.00 | 1 | 1013.5 |
| 20260901092332 | 68 | 256 | 0.0 | 0.0 | 0.00 | 0.00 | 0.00 | 1 | 1013.6 |
| 20260901091604 | 68 | 256 | 0.0 | 0.0 | 0.00 | 0.00 | 0.00 | 1 | 1013.6 |
| 20260901091103 | 68 | 256 | 0.0 | 0.0 | 0.00 | 0.00 | 0.00 | 1 | 1013.5 |
| 20260901090601 | 68 | 256 | 0.0 | 0.0 | 0.00 | 0.00 | 0.00 | 1 | 1013.4 |
| 20260901085819 | 68 | 256 | 0.0 | 0.0 | 0.00 | 0.00 | 0.00 | 1 | 1013.5 |
| 20260901085101 | 68 | 256 | 0.0 | 0.0 | 0.00 | 0.00 | 0.00 | 1 | 1013.6 |
| 20260901084558 | 68 | 256 | 0.0 | 0.0 | 0.00 | 0.00 | 0.00 | 1 | 1013.6 |
| 20260901084541 | 68 | 256 | 0.0 | 0.0 | 0.00 | 0.00 | 0.00 | 1 | 1013.7 |
| 20260901083558 | 68 | 256 | 0.0 | 0.0 | 0.00 | 0.00 | 0.00 | 1 | 1013.8 |
| 20260901083058 | 68 | 256 | 0.0 | 0.0 | 0.00 | 0.00 | 0.00 | 1 | 1013.7 |
| 20260901082558 | 68 | 256 | 0.0 | 0.0 | 0.00 | 0.00 | 0.00 | 1 | 1013.8 |
| 20260901082056 | 68 | 256 | 0.0 | 0.0 | 0.00 | 0.00 | 0.00 | 1 | 1013.7 |
| 20260901081556 | 68 | 256 | 0.0 | 0.0 | 0.00 | 0.00 | 0.00 | 1 | 1013.8 |
| 20260901081053 | 68 | 256 | 0.0 | 0.0 | 0.00 | 0.00 | 0.00 | 1 | 1013.7 |
| 20260901080547 | 68 | 256 | 0.0 | 0.0 | 0.00 | 0.00 | 0.00 | 1 | 1013.7 |
| 20260901080047 | 68 | 256 | 0.0 | 0.0 | 0.00 | 0.00 | 0.00 | 1 | 1013.8 |
| 20260901075549 | 68 | 256 | 0.0 | 0.0 | 0.00 | 0.00 | 0.00 | 1 | 1013.9 |
| 20260901075046 | 68 | 256 | 0.0 | 0.0 | 0.00 | 0.00 | 0.00 | 1 | 1014.0 |
| 20260901074546 | 68 | 256 | 0.0 | 0.0 | 0.00 | 0.00 | 0.00 | 1 | 1014.0 |
| 20260901074046 | 68 | 256 | 0.0 | 0.0 | 0.00 | 0.00 | 0.00 | 1 | 1014.0 |
| 20260901073545 | 68 | 256 | 0.0 | 0.0 | 0.00 | 0.00 | 0.00 | 1 | 1014.2 |
| 20260901073309 | 68 | 256 | 0.0 | 0.0 | 0.00 | 0.00 | 0.00 | 1 | 1014.3 |
| 20260901072547 | 68 | 256 | 0.0 | 0.0 | 0.00 | 0.00 | 0.00 | 1 | 1014.3 |
| 20260901072046 | 68 | 256 | 0.0 | 0.0 | 0.00 | 0.00 | 0.00 | 1 | 1014.2 |
| 20260901071546 | 68 | 256 | 0.0 | 0.0 | 0.00 | 0.00 | 0.00 | 1 | 1014.2 |
| 20260901071042 | 68 | 256 | 0.0 | 0.0 | 0.00 | 0.00 | 0.00 | 1 | 1014.2 |
| 20260901070541 | 68 | 256 | 0.0 | 0.0 | 0.00 | 0.00 | 0.00 | 1 | 1014.2 |
| 20260901070041 | 68 | 256 | 0.0 | 0.0 | 0.00 | 0.00 | 0.00 | 1 | 1014.3 |
| 20260901065542 | 68 | 256 | 0.0 | 0.0 | 0.00 | 0.00 | 0.00 | 1 | 1014.3 |
| 20260901065043 | 68 | 256 | 0.0 | 0.0 | 0.00 | 0.00 | 0.00 | 1 | 1014.3 |
| 20260901064542 | 68 | 256 | 0.0 | 0.0 | 0.00 | 0.00 | 0.00 | 1 | 1014.4 |
| 20260901064305 | 68 | 256 | 0.0 | 0.0 | 0.00 | 0.00 | 0.00 | 1 | 1014.5 |
| 20260901063542 | 68 | 256 | 0.0 | 0.0 | 0.00 | 0.00 | 0.00 | 1 | 1014.5 |
| 20260901063042 | 68 | 256 | 0.0 | 0.0 | 0.00 | 0.00 | 0.00 | 1 | 1014.5 |
| 20260901062541 | 68 | 256 | 0.0 | 0.0 | 0.00 | 0.00 | 0.00 | 1 | 1014.5 |
| 20260901062043 | 68 | 256 | 0.0 | 0.0 | 0.00 | 0.00 | 0.00 | 1 | 1014.6 |
| 20260901061801 | 68 | 256 | 0.0 | 0.0 | 0.00 | 0.00 | 0.00 | 1 | 1014.5 |
| 20260901061042 | 68 | 256 | 0.0 | 0.0 | 0.00 | 0.00 | 0.00 | 1 | 1014.6 |
| 20260901061024 | 68 | 256 | 0.0 | 0.0 | 0.00 | 0.00 | 0.00 | 1 | 1014.7 |
| 20260901060042 | 68 | 256 | 0.0 | 0.0 | 0.00 | 0.00 | 0.00 | 1 | 1014.7 |
| 20260901055542 | 68 | 256 | 0.0 | 0.0 | 0.00 | 0.00 | 0.00 | 1 | 1014.8 |
| 20260901055041 | 68 | 256 | 0.0 | 0.0 | 0.00 | 0.00 | 0.00 | 1 | 1014.9 |
| 20260901054542 | 68 | 256 | 0.0 | 0.0 | 0.00 | 0.00 | 0.00 | 1 | 1014.8 |
| 20260901054302 | 68 | 256 | 0.0 | 1.0 | 0.00 | 0.00 | 0.00 | 1 | 1014.8 |
| 20260901054020 | 68 | 256 | 0.0 | 1.0 | 0.00 | 0.00 | 0.00 | 1 | 1014.8 |
| 20260901053041 | 68 | 256 | 0.0 | 1.0 | 0.00 | 0.00 | 0.00 | 1 | 1014.8 |
| 20260901052542 | 68 | 256 | 0.0 | 1.0 | 0.00 | 0.00 | 0.00 | 1 | 1014.9 |
| 20260901052043 | 68 | 256 | 0.0 | 0.0 | 0.00 | 0.00 | 0.00 | 1 | 1015.0 |
| 20260901051542 | 68 | 256 | 0.0 | 0.0 | 0.00 | 0.00 | 0.00 | 1 | 1015.1 |
| 20260901051041 | 68 | 256 | 0.0 | 0.0 | 0.00 | 0.00 | 0.00 | 1 | 1015.0 |
| 20260901050541 | 68 | 256 | 0.0 | 0.0 | 0.00 | 0.00 | 0.00 | 1 | 1015.0 |
| 20260901050037 | 68 | 256 | 0.0 | 0.0 | 0.00 | 0.00 | 0.00 | 1 | 1015.1 |
| 20260901045537 | 68 | 256 | 0.0 | 0.0 | 0.00 | 0.00 | 0.00 | 1 | 1015.1 |
| 20260901045037 | 68 | 256 | 0.0 | 0.0 | 0.00 | 0.00 | 0.00 | 1 | 1015.2 |
| 20260901044801 | 68 | 256 | 0.0 | 0.0 | 0.00 | 0.00 | 0.00 | 1 | 1015.2 |
| 20260901044038 | 69 | 256 | 0.0 | 0.0 | 0.00 | 0.00 | 0.00 | 1 | 1015.1 |
| 20260901043537 | 69 | 256 | 0.0 | 0.0 | 0.00 | 0.00 | 0.00 | 1 | 1015.1 |
| 20260901043035 | 69 | 256 | 0.0 | 0.0 | 0.00 | 0.00 | 0.00 | 1 | 1015.1 |
| 20260901042535 | 68 | 256 | 0.0 | 0.0 | 0.00 | 0.00 | 0.00 | 1 | 1015.1 |
| 20260901042306 | 68 | 256 | 0.0 | 0.0 | 0.00 | 0.00 | 0.00 | 1 | 1015.2 |
| 20260901041533 | 69 | 256 | 0.0 | 0.0 | 0.00 | 0.00 | 0.00 | 1 | 1015.3 |
| 20260901041032 | 69 | 256 | 0.0 | 0.0 | 0.00 | 0.00 | 0.00 | 1 | 1015.3 |
| 20260901040529 | 69 | 256 | 0.0 | 0.0 | 0.00 | 0.00 | 0.00 | 1 | 1015.2 |
| 20260901040030 | 69 | 256 | 0.0 | 0.0 | 0.00 | 0.00 | 0.00 | 1 | 1015.3 |
| 20260901035530 | 69 | 256 | 0.0 | 0.0 | 0.00 | 0.00 | 0.00 | 1 | 1015.3 |
| 20260901035513 | 69 | 256 | 0.0 | 0.0 | 0.00 | 0.00 | 0.00 | 1 | 1015.4 |
| 20260901034527 | 69 | 256 | 0.0 | 0.0 | 0.00 | 0.00 | 0.00 | 1 | 1015.3 |
| 20260901034025 | 69 | 256 | 0.0 | 0.0 | 0.00 | 0.00 | 0.00 | 1 | 1015.4 |
| 20260901033525 | 69 | 256 | 0.0 | 0.0 | 0.00 | 0.00 | 0.00 | 1 | 1015.4 |
| 20260901033021 | 69 | 256 | 0.0 | 0.0 | 0.00 | 0.00 | 0.00 | 1 | 1015.4 |
| 20260901032519 | 69 | 256 | 0.0 | 1.0 | 0.00 | 0.00 | 0.00 | 1 | 1015.6 |
| 20260901032019 | 69 | 256 | 0.0 | 1.0 | 0.00 | 0.00 | 0.00 | 1 | 1015.6 |
| 20260901031518 | 69 | 256 | 0.0 | 0.0 | 0.00 | 0.00 | 0.00 | 1 | 1015.6 |
| 20260901031234 | 69 | 256 | 0.0 | 0.0 | 0.00 | 0.00 | 0.00 | 1 | 1015.5 |
| 20260901030518 | 69 | 256 | 0.0 | 0.0 | 0.00 | 0.00 | 0.00 | 1 | 1015.6 |
| 20260901030017 | 69 | 256 | 0.0 | 0.0 | 0.00 | 0.00 | 0.00 | 1 | 1015.6 |
| 20260901025517 | 69 | 256 | 0.0 | 0.0 | 0.00 | 0.00 | 0.00 | 1 | 1015.6 |
| 20260901025011 | 69 | 256 | 0.0 | 0.0 | 0.00 | 0.00 | 0.00 | 1 | 1015.6 |
| 20260901024504 | 69 | 256 | 0.0 | 0.0 | 0.00 | 0.00 | 0.00 | 1 | 1015.7 |